Location: Clatteringshaws Loch
(55.0508°N, 4.2860°W)
Time: 23:16:13
(UTC+00:00)

Amateur Radio Satellites - All Passes

Search period start: 21 December 2014 22:46
Search period end: 22 December 2014 22:46
Location: Clatteringshaws Loch, 55.0508°N, 4.2860°W

Satellite Date Start Highest point End Downlink Frequencies (MHz)
Time Altitude Azimuth
POLYITAN 1 21 Dec 22:46:35 22:50:25 31° 95° (E) 22:54:15 437.675
NANOSAT C BR1 21 Dec 22:47:53 22:51:42 31° 95° (E) 22:55:30 145.865
AUBIESAT-1 21 Dec 22:48:08 22:50:46 15° 40° (NE) 22:53:22 437.475
DX 1 21 Dec 22:59:16 23:00:00 10° 276° (W) 23:00:44 434.975-435.025
QB50P1 21 Dec 23:02:21 23:06:25 41° 98° (E) 23:10:28 145.935-145.965
AISAT 21 Dec 23:02:51 23:06:18 22° 269° (W) 23:09:46 437.250
CUBEBUG 1 21 Dec 23:03:51 23:08:02 45° 261° (W) 23:12:14 437.445
HUMSAT D 21 Dec 23:06:53 23:09:54 19° 271° (W) 23:12:57 437.325/437.525
ANTELSAT 21 Dec 23:07:21 23:12:03 68° 103° (ESE) 23:16:47 437.575/2403.000
SO-50 21 Dec 23:10:29 23:15:01 51° 328° (NNW) 23:19:44 436.795
BEESAT 2 21 Dec 23:12:29 23:13:19 11° 250° (WSW) 23:14:10 435.950
M-CUBED/EXP-1 PRIME 21 Dec 23:13:12 23:16:51 21° 47° (NE) 23:20:28 437.505
PCSat 21 Dec 23:25:45 23:30:20 28° 247° (WSW) 23:34:53 145.827
POPSAT HIP 1 21 Dec 23:31:07 23:35:24 75° 104° (ESE) 23:39:41 437.405
SWISSCUBE 21 Dec 23:39:59 23:44:18 34° 61° (ENE) 23:48:38 437.505
ITUPSAT 1 21 Dec 23:40:58 23:45:15 33° 60° (ENE) 23:49:32 437.325
TIGRISAT 21 Dec 23:42:17 23:46:56 66° 290° (WNW) 23:51:37 435.000
BUGSAT 1 21 Dec 23:52:25 23:56:30 85° 287° (WNW) 00:00:34 437.445
DUCHIFAT 1 21 Dec 23:58:39 00:02:53 64° 290° (WNW) 00:07:06 145.980
TISAT 1 22 Dec 00:00:43 00:04:43 42° 262° (W) 00:08:44 437.305
ESTCUBE 1 22 Dec 00:02:56 00:05:43 16° 273° (W) 00:08:31 437.505/2401.250
BEESAT 22 Dec 00:04:23 00:09:00 49° 66° (ENE) 00:13:37 436.000
SPROUT 22 Dec 00:07:38 00:11:40 40° 262° (W) 00:15:45 437.525
UNISAT 6 22 Dec 00:12:17 00:16:38 39° 296° (WNW) 00:21:01 437.425
QB50P2 22 Dec 00:13:08 00:17:15 48° 293° (WNW) 00:21:22 145.880/145.840
YUBILEINY 22 Dec 00:17:08 00:25:53 82° 98° (E) 00:34:37 435.215
AUBIESAT-1 22 Dec 00:20:04 00:24:49 52° 60° (ENE) 00:29:31 437.475
O/OREOS (USA 219) 22 Dec 00:21:24 00:25:08 27° 106° (ESE) 00:28:54 437.305
POLYITAN 1 22 Dec 00:22:27 00:26:28 40° 295° (WNW) 00:30:30 437.675
NANOSAT C BR1 22 Dec 00:23:42 00:27:41 39° 295° (WNW) 00:31:39 145.865
QB50P1 22 Dec 00:38:29 00:42:14 31° 298° (WNW) 00:45:58 145.935-145.965
ANTELSAT 22 Dec 00:44:45 00:48:29 24° 303° (WNW) 00:52:15 437.575/2403.000
STARS 22 Dec 00:45:01 00:48:26 23° 57° (ENE) 00:51:53 437.465
M-CUBED/EXP-1 PRIME 22 Dec 00:46:21 00:51:17 85° 66° (ENE) 00:56:11 437.505
KKS-1 22 Dec 00:50:30 00:54:27 32° 62° (ENE) 00:58:26 437.445
SO-50 22 Dec 00:52:26 00:56:31 27° 352° (N) 01:00:41 436.795
Oscar 19 22 Dec 01:05:09 01:09:34 27° 92° (E) 01:13:57 437.125/150
POPSAT HIP 1 22 Dec 01:07:50 01:10:53 19° 304° (NW) 01:13:55 437.405
SWISSCUBE 22 Dec 01:17:30 01:22:06 44° 261° (W) 01:26:43 437.505
ITUPSAT 1 22 Dec 01:18:23 01:23:02 47° 261° (W) 01:27:42 437.325
TIGRISAT 22 Dec 01:20:21 01:22:55 15° 310° (NW) 01:25:29 435.000
ITAMSAT 1 22 Dec 01:24:07 01:27:25 17° 86° (E) 01:30:43 435.822/435.867
Gurwin Techsat 1B 22 Dec 01:26:44 01:28:53 12° 82° (E) 01:31:02 435.225
BUGSAT 1 22 Dec 01:29:08 01:31:25 15° 307° (NW) 01:33:42 437.445
DUCHIFAT 1 22 Dec 01:36:08 01:37:59 13° 310° (NW) 01:39:51 145.980
BEESAT 22 Dec 01:42:49 01:47:03 31° 266° (W) 01:51:19 436.000
QB50P2 22 Dec 01:52:04 01:52:14 10° 313° (NW) 01:52:24 145.880/145.840
AUBIESAT-1 22 Dec 01:55:33 01:59:55 32° 259° (W) 02:04:18 437.475
O/OREOS (USA 219) 22 Dec 01:59:55 02:04:18 54° 307° (NW) 02:08:43 437.305
MOZHAYETS 4 22 Dec 02:10:34 02:12:40 13° 48° (NE) 02:14:46
YUBILEINY 22 Dec 02:16:04 02:23:45 33° 304° (NW) 02:31:29 435.215
STARS 22 Dec 02:20:13 02:24:35 64° 257° (WSW) 02:28:59 437.465
M-CUBED/EXP-1 PRIME 22 Dec 02:23:17 02:26:49 20° 266° (W) 02:30:22 437.505
KKS-1 22 Dec 02:26:50 02:31:02 42° 262° (W) 02:35:17 437.445
SO-50 22 Dec 02:34:00 02:38:17 31° 16° (NNE) 02:42:39 436.795
Oscar 19 22 Dec 02:44:09 02:49:18 62° 292° (WNW) 02:54:26 437.125/150
AIST 1 22 Dec 02:55:38 02:59:51 50° 73° (ENE) 03:04:00
ITAMSAT 1 22 Dec 03:02:30 03:07:43 85° 106° (ESE) 03:12:54 435.822/435.867
Gurwin Techsat 1B 22 Dec 03:04:40 03:09:58 63° 102° (ESE) 03:15:14 435.225
O/OREOS (USA 219) 22 Dec 03:41:54 03:44:44 16° 331° (NNW) 03:47:34 437.305
HORYU 2 22 Dec 03:42:04 03:46:34 58° 102° (ESE) 03:51:02 437.375
MOZHAYETS 4 22 Dec 03:44:27 03:49:01 58° 69° (ENE) 03:53:36
AO-7 22 Dec 03:55:19 04:03:01 38° 95° (E) 04:10:38 29.400- 29.500
STARS 22 Dec 04:01:29 04:01:59 10° 277° (W) 04:02:29 437.465
PRISM 22 Dec 04:02:12 04:05:19 20° 56° (ENE) 04:08:26 437.425
SO-50 22 Dec 04:14:42 04:19:33 71° 39° (NE) 04:24:28 436.795
STRAND 1 22 Dec 04:16:32 04:20:01 19° 50° (NE) 04:23:30 437.568
GONETS M04 22 Dec 04:18:08 04:25:14 29° 77° (ENE) 04:32:20
YUBILEINY 22 Dec 04:20:34 04:24:13 13° 335° (NNW) 04:27:52 435.215
Oscar 19 22 Dec 04:24:44 04:27:44 16° 313° (NW) 04:30:44 437.125/150
AIST 1 22 Dec 04:33:50 04:37:14 23° 273° (W) 04:40:36
ITAMSAT 1 22 Dec 04:42:45 04:46:40 22° 307° (NW) 04:50:36 435.822/435.867
Gurwin Techsat 1B 22 Dec 04:45:07 04:49:39 29° 303° (WNW) 04:54:10 435.225
JAS-2 22 Dec 04:58:21 05:03:47 39° 94° (E) 05:08:45 435.910
CUTE-I 22 Dec 05:03:12 05:04:53 11° 81° (E) 05:06:33 437.470
CUBESAT XI-V 22 Dec 05:11:29 05:15:50 40° 65° (ENE) 05:20:10 437.345
HORYU 2 22 Dec 05:19:14 05:22:58 26° 302° (WNW) 05:26:40 437.375
MOZHAYETS 4 22 Dec 05:22:47 05:26:35 25° 269° (W) 05:30:26
PRISM 22 Dec 05:36:14 05:40:28 70° 256° (WSW) 05:44:42 437.425
AO-7 22 Dec 05:48:06 05:56:26 72° 298° (WNW) 06:04:44 29.400- 29.500
STRAND 1 22 Dec 05:53:25 05:58:31 79° 71° (ENE) 06:03:39 437.568
SO-50 22 Dec 05:55:37 05:59:50 30° 240° (WSW) 06:04:04 436.795
Cubesat XI-IV 22 Dec 06:08:08 06:13:00 35° 95° (E) 06:17:51 437.490
GONETS M04 22 Dec 06:12:11 06:21:04 88° 281° (W) 06:29:57
CUTE-I 22 Dec 06:40:51 06:46:08 59° 102° (ESE) 06:51:22 437.470
JAS-2 22 Dec 06:43:29 06:49:05 45° 298° (WNW) 06:54:10 435.910
CUBESAT XI-V 22 Dec 06:49:03 06:53:21 35° 264° (W) 06:57:39 437.345
O/OREOS (USA 219) 22 Dec 07:05:35 07:07:41 13° 23° (NNE) 07:09:47 437.305
PRISM 22 Dec 07:15:51 07:16:48 11° 276° (W) 07:17:46 437.425
STRAND 1 22 Dec 07:34:34 07:38:20 20° 271° (W) 07:42:06 437.568
AO-7 22 Dec 07:41:21 07:48:04 28° 322° (NW) 07:54:46 29.400- 29.500
HO-68 22 Dec 07:47:45 07:52:34 19° 84° (E) 07:57:21 435.675
Cubesat XI-IV 22 Dec 07:48:11 07:53:18 49° 296° (WNW) 07:58:24 437.490
BRITE-PL 22 Dec 07:49:29 07:51:51 14° 86° (E) 07:54:17 437.365/2234.400
QB50P2 22 Dec 08:06:05 08:06:32 10° 47° (NE) 08:06:59 145.880/145.840
UNISAT 6 22 Dec 08:07:19 08:09:56 15° 51° (NE) 08:12:35 437.425
GOMX 1 22 Dec 08:08:22 08:11:09 15° 86° (E) 08:14:00 467.674
CANX-2 22 Dec 08:08:24 08:11:13 17° 87° (E) 08:14:00 2200.000
GONETS M04 22 Dec 08:11:42 08:19:14 30° 307° (NW) 08:26:48
POLYITAN 1 22 Dec 08:14:15 08:15:47 12° 49° (NE) 08:17:20 437.675
NANOSAT C BR1 22 Dec 08:15:08 08:16:40 12° 49° (NE) 08:18:12 145.865
CUTE-I 22 Dec 08:21:20 08:25:58 31° 302° (WNW) 08:30:35 437.470
YUBILEINY 22 Dec 08:21:41 08:28:03 22° 44° (NE) 08:34:23 435.215
COMPASS 1 22 Dec 08:25:56 08:28:44 17° 88° (E) 08:31:31 437.405
DOVE 4 22 Dec 08:26:40 08:29:46 17° 87° (E) 08:32:57 437.250
QB50P1 22 Dec 08:28:48 08:31:10 15° 52° (NE) 08:33:33 145.935-145.965
JAS-2 22 Dec 08:30:03 08:32:43 13° 323° (NW) 08:35:16 435.910
SEEDS 22 Dec 08:33:10 08:36:34 22° 91° (E) 08:39:56 437.485
DANDE 22 Dec 08:37:19 08:40:07 17° 77° (ENE) 08:43:26 436.750
ANTELSAT 22 Dec 08:38:04 08:41:41 25° 58° (ENE) 08:45:23 437.575/2403.000
CUTE 1.7 + AOD 2 22 Dec 08:38:25 08:42:09 27° 93° (E) 08:45:51 437.475
CINEMA 3 22 Dec 08:41:21 08:44:01 15° 86° (E) 08:46:44 145.822/145.860
O/OREOS (USA 219) 22 Dec 08:44:15 08:48:26 36° 46° (NE) 08:52:37 437.305
POPSAT HIP 1 22 Dec 08:56:28 08:59:48 23° 59° (ENE) 09:03:09 437.405
DX 1 22 Dec 09:01:15 09:03:26 14° 86° (E) 09:05:37 434.975-435.025
TIGRISAT 22 Dec 09:11:52 09:16:02 42° 65° (ENE) 09:20:20 435.000
BUGSAT 1 22 Dec 09:15:05 09:18:29 26° 61° (ENE) 09:21:53 437.445
CUSAT 1 22 Dec 09:19:09 09:23:12 43° 91° (E) 09:28:36 437.405
Oscar 11 22 Dec 09:20:02 09:23:43 26° 92° (E) 09:27:21 145.826/435.025
DUCHIFAT 1 22 Dec 09:23:00 09:26:51 36° 64° (ENE) 09:30:44 145.980
AAUSAT CUBESAT 2 22 Dec 09:24:13 09:28:21 47° 99° (E) 09:32:27 437.432
BRITE-PL 22 Dec 09:26:28 09:31:05 78° 104° (ESE) 09:36:04 437.365/2234.400
UKube-1 22 Dec 09:29:45 09:33:13 23° 92° (E) 09:36:39 .
Cubesat XI-IV 22 Dec 09:29:49 09:32:17 13° 317° (NW) 09:34:45 437.490
AO-7 22 Dec 09:33:53 09:38:16 16° 349° (N) 09:42:39 29.400- 29.500
HO-68 22 Dec 09:34:25 09:41:36 72° 106° (ESE) 09:48:44 435.675
QB50P2 22 Dec 09:37:27 09:41:31 49° 67° (ENE) 09:45:38 145.880/145.840
UNISAT 6 22 Dec 09:41:34 09:45:59 75° 72° (ENE) 09:50:34 437.425
MaSat-1 22 Dec 09:41:54 09:44:05 57° 309° (NW) 09:46:15 437.345
CANX-2 22 Dec 09:43:21 09:47:42 78° 287° (WNW) 09:52:01 2200.000
GOMX 1 22 Dec 09:45:14 09:49:55 84° 105° (ESE) 09:54:56 467.674
POLYITAN 1 22 Dec 09:46:46 09:50:55 59° 69° (ENE) 09:55:06 437.675
NANOSAT C BR1 22 Dec 09:47:35 09:51:43 59° 70° (ENE) 09:55:54 145.865
CUBEBUG 2 22 Dec 09:50:16 09:54:30 34° 95° (E) 09:58:48 437.445
ZACube-1 22 Dec 09:54:15 09:58:11 29° 93° (E) 10:02:10 437.345
COMPASS 1 22 Dec 10:00:42 10:05:00 75° 288° (WNW) 10:09:14 437.405
VELOX 1 22 Dec 10:01:59 10:05:12 19° 90° (E) 10:08:24 145.980
QB50P1 22 Dec 10:02:13 10:06:26 79° 72° (ENE) 10:10:41 145.935-145.965
DOVE 4 22 Dec 10:03:25 10:08:08 88° 286° (WNW) 10:13:07 437.250
DELFI C3 22 Dec 10:07:40 10:11:46 56° 101° (E) 10:15:49 145.870
SEEDS 22 Dec 10:08:30 10:12:44 57° 291° (WNW) 10:16:56 437.485
50 SAT 22 Dec 10:08:48 10:11:50 19° 90° (E) 10:14:52 437.505
ESTCUBE 1 22 Dec 10:11:23 10:12:59 12° 83° (E) 10:14:36 437.505/2401.250
ANTELSAT 22 Dec 10:13:47 10:18:10 60° 259° (WSW) 10:22:43 437.575/2403.000
CUTE 1.7 + AOD 2 22 Dec 10:14:08 10:18:17 46° 293° (WNW) 10:22:24 437.475
GONETS M04 22 Dec 10:16:45 10:20:01 12° 338° (NNW) 10:23:17
CINEMA 3 22 Dec 10:17:13 10:21:56 82° 105° (ESE) 10:26:49 145.822/145.860
YUBILEINY 22 Dec 10:18:22 10:27:01 63° 71° (ENE) 10:35:37 435.215
DANDE 22 Dec 10:18:22 10:22:29 79° 286° (WNW) 10:28:12 436.750
FUNcube-1 22 Dec 10:20:18 10:24:40 46° 99° (E) 10:29:04 145.935
RS-15 22 Dec 10:22:25 10:30:01 23° 99° (E) 10:37:38 29.354- 29.394
O/OREOS (USA 219) 22 Dec 10:23:40 10:27:58 44° 248° (WSW) 10:32:16 437.305
UWE-3 22 Dec 10:25:02 10:29:34 58° 101° (E) 10:34:09 435.000/436.395/437.385
POPSAT HIP 1 22 Dec 10:31:16 10:35:25 58° 258° (WSW) 10:39:37 437.405
DX 1 22 Dec 10:36:01 10:40:24 85° 106° (ESE) 10:44:45 434.975-435.025
HUMSAT D 22 Dec 10:42:42 10:46:54 46° 99° (E) 10:51:05 437.325/437.525
AISAT 22 Dec 10:45:30 10:49:46 44° 99° (E) 10:54:02 437.250
CUBEBUG 1 22 Dec 10:46:05 10:49:25 21° 91° (E) 10:52:44 437.445
TIGRISAT 22 Dec 10:48:58 10:52:55 31° 266° (W) 10:56:59 435.000
BUGSAT 1 22 Dec 10:49:55 10:53:50 45° 260° (W) 10:57:45 437.445
Oscar 19 22 Dec 10:52:06 10:55:32 18° 49° (NE) 10:58:59 437.125/150
Oscar 11 22 Dec 10:55:54 11:00:09 50° 292° (WNW) 11:04:22 145.826/435.025
DUCHIFAT 1 22 Dec 10:58:57 11:02:46 33° 264° (W) 11:06:37 145.980
AAUSAT CUBESAT 2 22 Dec 11:00:14 11:03:51 27° 299° (WNW) 11:07:27 437.432
CUSAT 1 22 Dec 11:02:20 11:06:29 35° 301° (WNW) 11:11:55 437.405
UKube-1 22 Dec 11:05:27 11:09:42 56° 292° (WNW) 11:13:57 .
BRITE-PL 22 Dec 11:05:49 11:09:14 21° 303° (WNW) 11:12:49 437.365/2234.400
ITAMSAT 1 22 Dec 11:12:50 11:15:14 13° 44° (NE) 11:17:37 435.822/435.867
QB50P2 22 Dec 11:14:12 11:17:42 25° 267° (W) 11:21:14 145.880/145.840
Gurwin Techsat 1B 22 Dec 11:18:48 11:20:04 11° 39° (NE) 11:21:21 435.225
UNISAT 6 22 Dec 11:20:16 11:23:21 18° 272° (W) 11:26:31 437.425
CANX-2 22 Dec 11:20:32 11:22:59 15° 307° (NW) 11:25:26 2200.000
HO-68 22 Dec 11:22:33 11:28:56 36° 308° (NW) 11:35:17 435.675
AO-7 22 Dec 11:23:12 11:27:56 17° 16° (NNE) 11:32:41 29.400- 29.500
POLYITAN 1 22 Dec 11:24:02 11:27:14 21° 269° (W) 11:30:29 437.675
GOMX 1 22 Dec 11:24:16 11:27:37 20° 304° (NW) 11:31:07 467.674
NANOSAT C BR1 22 Dec 11:24:48 11:27:59 21° 269° (W) 11:31:12 145.865
CUBEBUG 2 22 Dec 11:26:58 11:31:17 41° 294° (WNW) 11:35:42 437.445
ZACube-1 22 Dec 11:30:25 11:34:46 48° 293° (WNW) 11:39:10 437.345
COMPASS 1 22 Dec 11:37:44 11:40:02 14° 308° (NW) 11:42:21 437.405
VELOX 1 22 Dec 11:37:50 11:42:15 69° 290° (WNW) 11:46:39 145.980
TISAT 1 22 Dec 11:38:57 11:42:04 20° 90° (E) 11:45:11 437.305
QB50P1 22 Dec 11:40:19 11:42:54 16° 272° (W) 11:45:29 145.935-145.965
DOVE 4 22 Dec 11:42:11 11:45:23 19° 305° (NW) 11:48:42 437.250
50 SAT 22 Dec 11:43:20 11:47:27 62° 289° (WNW) 11:51:33 437.505
DELFI C3 22 Dec 11:43:29 11:46:45 23° 301° (WNW) 11:50:00 145.870
ESTCUBE 1 22 Dec 11:46:13 11:50:44 71° 104° (ESE) 11:55:13 437.505/2401.250
SEEDS 22 Dec 11:46:13 11:47:43 12° 311° (NW) 11:49:12 437.485
SPROUT 22 Dec 11:47:27 11:50:53 23° 91° (E) 11:54:18 437.525
CINEMA 3 22 Dec 11:55:15 11:58:41 21° 304° (NW) 12:02:12 145.822/145.860
FUNcube-1 22 Dec 11:56:56 12:00:54 31° 298° (WNW) 12:04:54 145.935
UWE-3 22 Dec 12:02:05 12:05:51 26° 300° (WNW) 12:09:40 435.000/436.395/437.385
DANDE 22 Dec 12:04:12 12:07:22 17° 316° (NW) 12:11:10 436.750
DX 1 22 Dec 12:13:10 12:16:08 18° 306° (NW) 12:19:04 434.975-435.025
YUBILEINY 22 Dec 12:15:36 12:23:32 42° 275° (W) 12:31:28 435.215
HUMSAT D 22 Dec 12:18:50 12:22:33 29° 298° (WNW) 12:26:18 437.325/437.525
GONETS M04 22 Dec 12:20:35 12:22:27 11° 14° (NNE) 12:24:20
CUBEBUG 1 22 Dec 12:21:54 12:26:11 60° 290° (WNW) 12:30:27 437.445
AISAT 22 Dec 12:22:24 12:26:18 31° 299° (WNW) 12:30:11 437.250
Oscar 19 22 Dec 12:28:58 12:34:07 75° 70° (ENE) 12:39:19 437.125/150
RS-15 22 Dec 12:29:27 12:40:11 68° 125° (SE) 12:51:05 29.354- 29.394
BEESAT 3 22 Dec 12:31:44 12:33:57 14° 113° (ESE) 12:36:11 437.485
PCSat 22 Dec 12:33:53 12:36:21 13° 103° (ESE) 12:38:48 145.827
Oscar 11 22 Dec 12:34:20 12:35:23 11° 313° (NW) 12:36:25 145.826/435.025
UKube-1 22 Dec 12:43:25 12:45:01 12° 312° (NW) 12:46:37 .
ITAMSAT 1 22 Dec 12:48:40 12:53:40 50° 65° (ENE) 12:58:40 435.822/435.867
AIST 2 22 Dec 12:50:23 12:50:48 10° 109° (ESE) 12:51:12 435.215
CUSAT 1 22 Dec 12:50:47 12:51:57 11° 329° (NNW) 12:53:10 437.405
Gurwin Techsat 1B 22 Dec 12:53:51 12:58:44 39° 61° (ENE) 13:03:38 435.225
ZACube-1 22 Dec 13:09:07 13:10:11 11° 313° (NW) 13:11:14 437.345
SWISSCUBE 22 Dec 13:10:43 13:14:54 29° 94° (E) 13:19:02 437.505
HO-68 22 Dec 13:11:14 13:14:46 15° 333° (NNW) 13:18:18 435.675
AO-7 22 Dec 13:11:15 13:18:22 33° 43° (NE) 13:25:30 29.400- 29.500
BEESAT 2 22 Dec 13:11:36 13:15:06 27° 120° (ESE) 13:18:39 435.950
ITUPSAT 1 22 Dec 13:11:57 13:16:03 28° 93° (E) 13:20:08 437.325
HORYU 2 22 Dec 13:12:14 13:15:46 23° 57° (ENE) 13:19:20 437.375
TISAT 1 22 Dec 13:14:07 13:18:18 63° 290° (WNW) 13:22:29 437.305
VELOX 1 22 Dec 13:15:47 13:18:06 14° 310° (NW) 13:20:25 145.980
50 SAT 22 Dec 13:20:18 13:21:54 12° 309° (NW) 13:23:30 437.505
SPROUT 22 Dec 13:23:05 13:27:18 55° 291° (WNW) 13:31:31 437.525
ESTCUBE 1 22 Dec 13:23:47 13:27:12 22° 304° (NW) 13:30:37 437.505/2401.250
AUBIESAT-1 22 Dec 13:32:38 13:34:35 13° 90° (E) 13:36:28 437.475
BEESAT 22 Dec 13:35:11 13:39:45 42° 98° (E) 13:44:16 436.000
JAS-2 22 Dec 13:35:48 13:39:33 16° 41° (NE) 13:43:06 435.910
M-CUBED/EXP-1 PRIME 22 Dec 13:58:29 14:02:03 23° 96° (E) 14:05:23 437.505
CUBEBUG 1 22 Dec 13:59:58 14:01:45 12° 311° (NW) 14:03:32 437.445
STARS 22 Dec 14:04:08 14:06:48 16° 87° (E) 14:09:28 437.465
BEESAT 3 22 Dec 14:07:19 14:11:27 74° 133° (SE) 14:15:39 437.485
Oscar 19 22 Dec 14:10:06 14:14:03 22° 271° (W) 14:18:02 437.125/150
KKS-1 22 Dec 14:11:00 14:14:39 24° 92° (E) 14:18:17 437.445
ISS 22 Dec 14:13:13 14:15:46 21° 152° (SSE) 14:18:20 145.825
PCSat 22 Dec 14:13:23 14:18:43 60° 124° (SE) 14:24:04 145.827
YUBILEINY 22 Dec 14:16:41 14:17:47 10° 300° (WNW) 14:18:53 435.215
GONETS M04 22 Dec 14:16:52 14:23:45 24° 47° (NE) 14:30:33
AIST 2 22 Dec 14:24:20 14:28:30 54° 129° (SE) 14:32:44 435.215
ITAMSAT 1 22 Dec 14:28:44 14:33:23 33° 265° (W) 14:38:04 435.822/435.867
Gurwin Techsat 1B 22 Dec 14:33:36 14:38:41 45° 262° (W) 14:43:48 435.225
RS-15 22 Dec 14:42:05 14:52:55 63° 335° (NNW) 15:04:03 29.354- 29.394
HORYU 2 22 Dec 14:47:38 14:52:05 65° 257° (WSW) 14:56:36 437.375
SWISSCUBE 22 Dec 14:48:23 14:53:01 50° 294° (WNW) 14:57:36 437.505
BEESAT 2 22 Dec 14:48:56 14:53:05 65° 321° (NW) 14:57:18 435.950
ITUPSAT 1 22 Dec 14:49:34 14:54:15 53° 293° (WNW) 14:58:52 437.325
TISAT 1 22 Dec 14:51:37 14:53:22 12° 310° (NW) 14:55:07 437.305
CUTE-I 22 Dec 14:55:42 14:56:56 11° 39° (NE) 14:58:10 437.470
SPROUT 22 Dec 15:01:08 15:02:32 11° 311° (NW) 15:03:56 437.525
AO-7 22 Dec 15:01:57 15:10:19 87° 66° (ENE) 15:18:45 29.400- 29.500
AUBIESAT-1 22 Dec 15:05:54 15:10:25 79° 111° (ESE) 15:14:30 437.475
BEESAT 22 Dec 15:13:13 15:17:34 36° 298° (WNW) 15:21:53 436.000
JAS-2 22 Dec 15:16:26 15:23:19 47° 62° (ENE) 15:29:32 435.910
M-CUBED/EXP-1 PRIME 22 Dec 15:32:59 15:37:28 59° 298° (WNW) 15:41:33 437.505
AIST 1 22 Dec 15:33:44 15:36:59 21° 86° (E) 15:40:14
STARS 22 Dec 15:39:27 15:43:56 87° 287° (WNW) 15:48:23 437.465
BEESAT 3 22 Dec 15:46:13 15:50:00 33° 335° (NNW) 15:53:49 437.485
KKS-1 22 Dec 15:47:14 15:51:37 56° 292° (WNW) 15:56:00 437.445
ISS 22 Dec 15:48:43 15:51:52 43° 172° (S) 15:55:01 145.825
PCSat 22 Dec 15:57:14 16:02:24 43° 327° (NNW) 16:07:35 145.827
Cubesat XI-IV 22 Dec 15:58:57 16:03:12 25° 54° (NE) 16:07:28 437.490
MaSat-1 22 Dec 15:59:39 16:01:10 16° 40° (NE) 16:02:43 437.345
AIST 2 22 Dec 16:03:14 16:07:18 40° 331° (NNW) 16:11:25 435.215
GONETS M04 22 Dec 16:13:38 16:22:28 71° 74° (ENE) 16:31:10
SWISSCUBE 22 Dec 16:28:03 16:29:53 12° 315° (NW) 16:31:42 437.505
BEESAT 2 22 Dec 16:28:29 16:32:02 26° 344° (NNW) 16:35:36 435.950
HORYU 2 22 Dec 16:28:41 16:29:42 11° 277° (W) 16:30:42 437.375
ITUPSAT 1 22 Dec 16:29:08 16:31:11 13° 314° (NW) 16:33:13 437.325
CUTE-I 22 Dec 16:30:49 16:35:41 38° 61° (ENE) 16:40:35 437.470
HO-68 22 Dec 16:41:03 16:44:21 14° 26° (NNE) 16:47:40 435.675
AUBIESAT-1 22 Dec 16:41:27 16:44:51 21° 313° (NW) 16:48:04 437.475
RS-15 22 Dec 16:56:40 17:07:22 53° 7° (N) 17:18:27 29.354- 29.394
AO-7 22 Dec 16:57:05 17:04:08 30° 269° (W) 17:11:15 29.400- 29.500
JAS-2 22 Dec 17:01:10 17:08:23 52° 261° (W) 17:14:53 435.910
M-CUBED/EXP-1 PRIME 22 Dec 17:09:07 17:11:35 15° 320° (NW) 17:13:58 437.505
MOZHAYETS 4 22 Dec 17:09:38 17:14:11 52° 100° (E) 17:18:41
AIST 1 22 Dec 17:09:58 17:14:17 58° 286° (WNW) 17:18:36
PRISM 22 Dec 17:14:34 17:15:37 11° 84° (E) 17:16:40 437.425
STARS 22 Dec 17:16:57 17:19:49 17° 307° (NW) 17:22:41 437.465
DANDE 22 Dec 17:24:40 17:28:36 15° 41° (NE) 17:32:54 436.750
ISS 22 Dec 17:25:02 17:28:09 39° 192° (SSW) 17:31:15 145.825
KKS-1 22 Dec 17:25:37 17:27:24 12° 312° (NW) 17:29:10 437.445
BEESAT 3 22 Dec 17:25:59 17:29:15 21° 359° (N) 17:32:31 437.485
MaSat-1 22 Dec 17:32:17 17:34:28 37° 239° (WSW) 17:36:46 437.345
Cubesat XI-IV 22 Dec 17:37:30 17:42:51 77° 255° (WSW) 17:48:12 437.490
PCSat 22 Dec 17:42:45 17:47:08 24° 352° (N) 17:51:32 145.827
AIST 2 22 Dec 17:43:27 17:46:55 23° 354° (N) 17:50:23 435.215
STRAND 1 22 Dec 17:57:47 18:00:53 16° 86° (E) 18:03:58 437.568
CUSAT 1 22 Dec 18:06:00 18:11:50 25° 52° (NE) 18:18:22 437.405
CUTE 1.7 + AOD 2 22 Dec 18:06:54 18:07:23 10° 47° (NE) 18:07:52 437.475
BEESAT 2 22 Dec 18:08:06 18:11:28 22° 8° (N) 18:14:49 435.950
CUTE-I 22 Dec 18:10:37 18:15:44 46° 261° (W) 18:20:52 437.470
GONETS M04 22 Dec 18:11:01 18:18:45 37° 278° (W) 18:26:24
HO-68 22 Dec 18:23:51 18:30:06 34° 50° (NE) 18:36:22 435.675
CUBESAT XI-V 22 Dec 18:38:14 18:42:31 36° 96° (E) 18:46:45 437.345
MOZHAYETS 4 22 Dec 18:47:14 18:51:13 29° 300° (WNW) 18:55:09
PRISM 22 Dec 18:47:46 18:51:58 73° 105° (ESE) 18:56:05 437.425
AAUSAT CUBESAT 2 22 Dec 18:49:02 18:51:28 15° 53° (NE) 18:53:55 437.432
Oscar 11 22 Dec 18:49:54 18:50:34 10° 47° (NE) 18:51:13 145.826/435.025
AIST 1 22 Dec 18:51:44 18:52:58 11° 307° (NW) 18:54:11
JAS-2 22 Dec 18:51:58 18:54:52 13° 282° (WNW) 18:57:40 435.910
UKube-1 22 Dec 18:59:33 19:00:27 11° 46° (NE) 19:01:20 .
ISS 22 Dec 19:01:56 19:04:10 17° 211° (SSW) 19:06:24 145.825
BEESAT 3 22 Dec 19:04:48 19:08:33 30° 22° (NNE) 19:12:16 437.485
DANDE 22 Dec 19:07:08 19:13:58 43° 63° (ENE) 19:21:57 436.750
BRITE-PL 22 Dec 19:07:34 19:11:08 29° 62° (ENE) 19:14:48 437.365/2234.400
CANX-2 22 Dec 19:08:11 19:11:56 30° 62° (ENE) 19:15:42 2200.000
RS-15 22 Dec 19:10:11 19:21:21 79° 38° (NE) 19:32:59 29.354- 29.394
Cubesat XI-IV 22 Dec 19:20:44 19:23:51 16° 275° (W) 19:26:59 437.490
CUBEBUG 2 22 Dec 19:22:13 19:24:10 13° 49° (NE) 19:26:08 437.445
AIST 2 22 Dec 19:22:59 19:26:43 27° 18° (NNE) 19:30:27 435.215
GOMX 1 22 Dec 19:23:52 19:27:31 30° 62° (ENE) 19:31:17 467.674
COMPASS 1 22 Dec 19:24:16 19:27:57 29° 62° (ENE) 19:31:40 437.405
ZACube-1 22 Dec 19:25:05 19:26:07 11° 47° (NE) 19:27:10 437.345
PCSat 22 Dec 19:27:34 19:32:12 27° 18° (NNE) 19:36:49 145.827
DELFI C3 22 Dec 19:29:49 19:32:24 16° 55° (NE) 19:34:59 145.870
SEEDS 22 Dec 19:32:16 19:36:14 38° 65° (ENE) 19:40:14 437.485
STRAND 1 22 Dec 19:35:46 19:40:54 83° 106° (ESE) 19:46:00 437.568
CUTE 1.7 + AOD 2 22 Dec 19:38:14 19:42:21 48° 68° (ENE) 19:46:32 437.475
DOVE 4 22 Dec 19:39:45 19:43:29 32° 63° (ENE) 19:47:21 437.250
BEESAT 2 22 Dec 19:46:37 19:50:40 42° 31° (NNE) 19:54:40 435.950
CUSAT 1 22 Dec 19:48:40 19:56:04 73° 73° (ENE) 20:04:34 437.405
FUNcube-1 22 Dec 19:49:19 19:51:55 16° 53° (NE) 19:54:33 145.935
CINEMA 3 22 Dec 19:50:18 19:53:54 27° 60° (ENE) 19:57:37 145.822/145.860
UWE-3 22 Dec 19:54:42 19:57:46 20° 56° (NE) 20:00:54 435.000/436.395/437.385
DX 1 22 Dec 20:03:12 20:06:59 30° 61° (ENE) 20:10:47 434.975-435.025
HUMSAT D 22 Dec 20:08:29 20:10:53 15° 53° (NE) 20:13:19 437.325/437.525
HO-68 22 Dec 20:10:08 20:17:20 78° 252° (WSW) 20:24:34 435.675
CUBESAT XI-V 22 Dec 20:15:44 20:20:01 39° 296° (WNW) 20:24:17 437.345
AISAT 22 Dec 20:15:55 20:18:57 19° 54° (NE) 20:21:59 437.250
SO-50 22 Dec 20:17:48 20:20:53 18° 114° (ESE) 20:24:01 436.795
Oscar 11 22 Dec 20:21:35 20:25:46 48° 67° (ENE) 20:29:59 145.826/435.025
AAUSAT CUBESAT 2 22 Dec 20:22:16 20:26:30 81° 73° (ENE) 20:30:47 437.432
PRISM 22 Dec 20:24:05 20:27:04 19° 304° (NW) 20:30:02 437.425
UKube-1 22 Dec 20:31:30 20:35:40 48° 66° (ENE) 20:39:52 .
BEESAT 3 22 Dec 20:42:59 20:47:12 88° 223° (SW) 20:51:22 437.485
CANX-2 22 Dec 20:43:39 20:47:45 43° 262° (W) 20:51:55 2200.000
BRITE-PL 22 Dec 20:45:41 20:49:36 41° 262° (W) 20:53:37 437.365/2234.400
DANDE 22 Dec 20:50:33 20:57:50 65° 262° (W) 21:06:19 436.750
CUBEBUG 2 22 Dec 20:55:51 21:00:03 64° 70° (ENE) 21:04:25 437.445
ZACube-1 22 Dec 20:57:26 21:01:33 51° 68° (ENE) 21:05:47 437.345
COMPASS 1 22 Dec 20:59:30 21:03:33 43° 262° (W) 21:07:39 437.405
AIST 2 22 Dec 21:01:39 21:06:00 72° 40° (NE) 21:10:17 435.215
GOMX 1 22 Dec 21:01:42 21:05:37 39° 263° (W) 21:09:39 467.674
DELFI C3 22 Dec 21:02:59 21:07:07 88° 254° (WSW) 21:11:18 145.870
50 SAT 22 Dec 21:03:49 21:07:25 32° 63° (ENE) 21:11:04 437.505
VELOX 1 22 Dec 21:06:30 21:10:39 41° 65° (ENE) 21:14:50 145.980
SEEDS 22 Dec 21:08:18 21:12:08 32° 265° (W) 21:16:02 437.485
PCSat 22 Dec 21:11:12 21:16:37 62° 42° (NE) 21:22:00 145.827
CUTE 1.7 + AOD 2 22 Dec 21:14:55 21:18:31 26° 268° (W) 21:22:10 437.475
STRAND 1 22 Dec 21:15:41 21:19:35 23° 307° (NW) 21:23:28 437.568
ESTCUBE 1 22 Dec 21:17:08 21:20:56 27° 59° (ENE) 21:24:45 437.505/2401.250
DOVE 4 22 Dec 21:17:23 21:21:16 37° 264° (W) 21:25:18 437.250
RS-15 22 Dec 21:22:49 21:33:12 47° 245° (WSW) 21:44:01 29.354- 29.394
FUNcube-1 22 Dec 21:23:24 21:27:38 85° 74° (ENE) 21:32:01 145.935
BEESAT 2 22 Dec 21:24:57 21:29:01 48° 232° (SW) 21:33:03 435.950
CINEMA 3 22 Dec 21:26:52 21:30:56 47° 261° (W) 21:35:11 145.822/145.860
UNISAT 6 22 Dec 21:28:49 21:30:06 11° 82° (E) 21:31:22 437.425
UWE-3 22 Dec 21:29:36 21:33:51 75° 256° (WSW) 21:38:14 435.000/436.395/437.385
CUSAT 1 22 Dec 21:32:09 21:38:53 37° 272° (W) 21:46:22 437.405
YUBILEINY 22 Dec 21:37:38 21:41:49 15° 65° (ENE) 21:46:00 435.215
DX 1 22 Dec 21:38:57 21:43:07 44° 261° (W) 21:47:18 434.975-435.025
HUMSAT D 22 Dec 21:41:53 21:46:03 82° 73° (ENE) 21:50:19 437.325/437.525
CUBEBUG 1 22 Dec 21:49:06 21:53:13 43° 66° (ENE) 21:57:21 437.445
AISAT 22 Dec 21:50:38 21:55:04 85° 254° (WSW) 21:59:31 437.250
SO-50 22 Dec 21:56:07 22:00:45 81° 135° (SE) 22:05:32 436.795
Oscar 11 22 Dec 21:58:28 22:02:10 27° 267° (W) 22:05:54 145.826/435.025
ANTELSAT 22 Dec 21:59:18 22:02:46 20° 89° (E) 22:06:14 437.575/2403.000
AAUSAT CUBESAT 2 22 Dec 22:00:13 22:02:46 16° 273° (W) 22:05:20 437.432
HO-68 22 Dec 22:01:05 22:06:14 21° 275° (W) 22:11:25 435.675
UKube-1 22 Dec 22:08:24 22:12:04 26° 266° (W) 22:15:45 .
POPSAT HIP 1 22 Dec 22:10:38 22:13:11 15° 87° (E) 22:15:44 437.405
BEESAT 3 22 Dec 22:22:03 22:24:50 17° 245° (WSW) 22:27:35 437.485
BUGSAT 1 22 Dec 22:26:01 22:28:37 16° 89° (E) 22:31:12 437.445
TIGRISAT 22 Dec 22:32:56 22:37:16 35° 96° (E) 22:41:36 435.000
CUBEBUG 2 22 Dec 22:34:07 22:37:14 20° 271° (W) 22:40:26 437.445
ZACube-1 22 Dec 22:34:46 22:38:14 24° 269° (W) 22:41:47 437.345
DANDE 22 Dec 22:35:19 22:40:20 20° 281° (WNW) 22:45:48 436.750
DUCHIFAT 1 22 Dec 22:36:51 22:40:24 25° 93° (E) 22:43:56 145.980
TISAT 1 22 Dec 22:38:14 22:42:06 37° 64° (ENE) 22:46:00 437.305
DELFI C3 22 Dec 22:41:04 22:43:03 13° 274° (W) 22:45:03 145.870
